OSCAR 7 1 7530U 74089B 26126.96930691 -.00000050 00000-0 -19435-4 0 9996 2 7530 101.9922 139.7837 0012068 208.2219 222.1707 12.53697398355355 OSCAR 11 (UOSAT 2) 1 14781U 84021B 26127.14236214 .00001102 00000-0 11806-3 0 9990 2 14781 97.8033 93.1865 0006755 330.7497 29.3342 14.90686869251010 OSCAR 19 (LUSAT) 1 20442U 90005G 26127.01826786 .00000108 00000-0 55502-4 0 9992 2 20442 98.8876 147.6847 0010993 332.1572 27.9022 14.34110255896496 EYESAT A 1 22825U 93061C 26126.74459964 .00000098 00000-0 54324-4 0 9992 2 22825 98.6894 194.1688 0007705 215.4786 144.5885 14.30931000701075 ITAMSAT 1 22826U 93061D 26126.73634807 .00000100 00000-0 54754-4 0 9994 2 22826 98.6843 194.0739 0008531 198.1919 161.8960 14.31356723701383 RADIO ROSTO 1 23439U 94085A 26126.96424777 -.00000037 00000-0 15555-3 0 9995 2 23439 64.8207 9.8867 0154798 11.4026 349.0342 11.27583837291255 JAS 2 1 24278U 96046B 26126.31526696 -.00000038 00000-0 -16652-5 0 9991 2 24278 98.5286 340.9120 0349410 204.9476 153.4419 13.53272324467506 TECHSAT 1B 1 25397U 98043D 26126.97211786 .00000059 00000-0 45693-4 0 9993 2 25397 99.0063 118.6940 0001313 24.9613 335.1628 14.24420255445467 ISS (ZARYA) 1 25544U 98067A 26126.84466763 .00005913 00000-0 11489-3 0 9995 2 25544 51.6305 144.7453 0007432 30.9733 329.1692 15.49124105565348 PCSAT 1 26931U 01043C 26126.95029622 .00000105 00000-0 70199-4 0 9997 2 26931 67.0520 350.9298 0006347 263.7647 96.2732 14.31940052284545 SAUDISAT 1C 1 27607U 02058C 26126.75054817 .00001267 00000-0 16651-3 0 9999 2 27607 64.5522 257.1785 0075640 270.0231 89.2208 14.82959317258317 CUTE-1 1 27844U 03031E 26126.94171881 .00000268 00000-0 13492-3 0 9996 2 27844 98.6750 136.0181 0008556 310.3751 49.6680 14.24310032185801 CUBESAT XI 4 1 27848U 03031J 26126.97982924 .00000220 00000-0 11591-3 0 9997 2 27848 98.6782 135.8017 0008787 330.5693 29.4990 14.23598617185514 MOZHAYETS 4 1 27939U 03042A 26127.00181273 .00001085 00000-0 17559-3 0 9993 2 27939 98.3467 310.1996 0012216 43.9548 74.3849 14.73396207209483 CUBESAT XI 5 1 28895U 05043F 26126.88576346 .00001304 00000-0 21343-3 0 9992 2 28895 98.2941 281.6544 0013518 341.7038 18.3681 14.72523641 95670 CUTE-1.7+APD 2 1 32785U 08021C 26127.14283544 .00004129 00000-0 26468-3 0 9990 2 32785 97.8271 107.7271 0009567 157.5409 202.6240 15.09069737979002 SEEDS 1 32791U 08021J 26126.98658455 .00014867 00000-0 49289-3 0 9991 2 32791 97.7532 122.9668 0005109 95.8978 264.2845 15.31365797980984 YUBELEINY 1 32953U 08025A 26127.21560299 .00000009 00000-0 -62179-5 0 9999 2 32953 82.5075 20.9254 0020483 42.4661 317.7999 12.43177872814609 KKS-1 (KISEKI) 1 33499U 09002H 26127.16812847 .00001261 00000-0 16184-3 0 9997 2 33499 98.1192 48.9639 0009260 67.2515 292.9676 14.83017804930113 SWISSCUBE 1 35932U 09051B 26127.18546463 .00000928 00000-0 19328-3 0 9997 2 35932 98.4060 34.3575 0006632 352.5670 7.5431 14.62401944883164 BEESAT 1 35933U 09051C 26127.17374793 .00000796 00000-0 16977-3 0 9992 2 35933 98.3988 34.0663 0005468 10.0689 350.0620 14.61653144883199 ITUPSAT 1 1 35935U 09051E 26127.19733271 .00000713 00000-0 15737-3 0 9998 2 35935 98.4073 33.3252 0007861 15.9232 344.2213 14.60378449882755 XIWANG-1 (HOPE-1) 1 36122U 09072B 26127.12836022 .00000116 00000-0 41957-3 0 9991 2 36122 100.4008 81.6226 0007317 332.9015 27.1715 13.16439207787602 TISAT 1 1 36799U 10035E 26127.06885661 .00016846 00000-0 57914-3 0 9995 2 36799 98.0696 70.0311 0003921 63.6439 296.5202 15.30174110861411 JUGNU 1 37839U 11058B 26126.44976612 .00000429 00000-0 84360-4 0 9991 2 37839 19.9597 201.9963 0018571 336.1383 121.6989 14.13764438753115 SRMSAT 1 37841U 11058D 26127.16923191 .00000405 00000-0 75769-4 0 9995 2 37841 19.9731 307.7459 0011771 112.4963 48.2406 14.11566490752019 HORYU 2 1 38340U 12025D 26126.89763073 .00003066 00000-0 31752-3 0 9994 2 38340 98.2118 258.1671 0007139 323.6100 36.4631 14.90821316742577 STRAND 1 1 39090U 13009E 26127.04844322 .00000255 00000-0 10012-3 0 9998 2 39090 98.3916 308.2974 0008572 2.5733 357.5497 14.37138892691152 CUBEBUG 1 1 39153U 13018D 26126.99840655 .00003139 00000-0 27773-3 0 9992 2 39153 98.1643 285.1235 0010026 286.6041 73.4078 14.97054804704907 ZACUBE 1 39417U 13066B 26127.14330888 .00004392 00000-0 34358-3 0 9997 2 39417 97.8130 89.2589 0042721 31.1805 329.1940 15.00870273674579 TRITON 1 1 39427U 13066M 26127.23442353 .00002890 00000-0 34991-3 0 9993 2 39427 97.8265 37.9748 0090682 8.8957 351.3836 14.81525500668026 GOMX 1 1 39430U 13066Q 26127.19084664 .00001898 00000-0 29135-3 0 9990 2 39430 97.6507 330.2374 0128085 208.6371 150.7762 14.69302685663892 CUBEBUG 2 1 39440U 13066AA 26126.86182620 .00003161 00000-0 29638-3 0 9998 2 39440 97.8883 75.6839 0058432 162.8596 197.4615 14.93461342670825 FUNCUBE 1 1 39444U 13066AE 26127.14863203 .00006272 00000-0 39554-3 0 9991 2 39444 97.8255 97.7616 0036094 346.3674 13.6575 15.08953133673475 UWE-3 1 39446U 13066AG 26126.83645982 .00004017 00000-0 34791-3 0 9993 2 39446 97.8689 82.6523 0051330 97.1541 263.5520 14.96690140671399 UNISAT 6 1 40012U 14033C 26126.98208729 .00003245 00000-0 35307-3 0 9995 2 40012 97.7836 280.4383 0044757 202.6003 157.3244 14.88008270640034 DUCHIFAT 1 1 40021U 14033M 26127.11552206 .00065372 00000-0 87951-3 0 9994 2 40021 98.0511 180.7622 0005421 202.8441 157.2572 15.57647190649342 QB50P1 1 40025U 14033R 26126.94952030 .00007222 00000-0 36237-3 0 9998 2 40025 98.0987 135.2245 0009048 19.2971 340.8601 15.17628400646772 OBJECT G 1 40905U 15049G 26127.18591266 .00030288 00000-0 32923-3 0 9996 2 40905 97.4598 168.8877 0004821 28.6704 331.4818 15.63414028590038 LILACSAT 2 1 40908U 15049K 26127.16797271 .00014843 00000-0 26507-3 0 9991 2 40908 97.4701 162.4828 0008182 55.0198 305.1820 15.50112537589392 LQSAT 1 40958U 15057A 26127.21218743 .00000728 00000-0 11049-3 0 9995 2 40958 97.6680 122.6204 0018351 48.5752 311.7032 14.76732371569266 CHUBUSAT 2 1 41338U 16012B 26126.66116329 .00005645 00000-0 24674-3 0 9996 2 41338 30.9975 233.8100 0008770 14.8412 345.2486 15.20475539562098 CHUBUSAT 3 1 41339U 16012C 26126.72441845 .00005273 00000-0 24586-3 0 9997 2 41339 31.0051 242.0036 0008989 3.8469 356.2240 15.18228356561895 PRATHAM 1 41783U 16059A 26126.98284828 .00000707 00000-0 13321-3 0 9997 2 41783 97.8323 125.6535 0031066 352.7359 7.3392 14.67139858513470 ALSAT 1N 1 41789U 16059G 26127.11810542 .00001015 00000-0 17947-3 0 9998 2 41789 97.8014 132.2994 0025141 322.4854 37.4598 14.69242665513977